Home > Weather > Le Mans > Past weeks

Flag for France Weather for the Past 2 Weeks in Le Mans, France

Now
39 °F

Passing clouds.


Feels Like: 34 °F
Forecast: 35 / 45 °F
Wind: 7 mph from Southwest

Location: Le Mans Airport

Current Time: Feb 10, 2016 at 10:05:46 AM

Latest Report: Feb 10, 2016 at 9:30 AM


Visibility: N/A

Pressure: 29.62 "Hg

Humidity: 75%

Dew point: 32 °F

Location of Le MansLocation

Historic Weather in Le Mans — Graph

°F

Le Mans Temperature Yesterday

Maximum temperature yesterday: 55 °F (at 9:30 AM)
Minimum temperature yesterday: 37 °F (at 11:30 PM)
Average temperature yesterday: 46 °F

High & Low Weather Summary for the Past Weeks

 TemperatureHumidityPressure
High57 °F (Jan 26, 4:30 PM)100% (Jan 28, 7:00 AM)30.57 "Hg (Jan 28, 7:00 AM)
Low30 °F (Jan 29, 5:00 AM)47% (Feb 8, 2:00 PM)29.18 "Hg (Feb 9, 10:30 AM)
Average49 °F84%30.08 "Hg
* Reported Jan 26 9:00 AM — Feb 10 9:00 AM, Le Mans, Weather by CustomWeather, © 2016

Note: Actual official high and low records may vary slightly from our data, if they occured in-between our weather recording intervals... More about our weather records

Advertising

Le Mans Weather History for the Previous 24 Hours

 ConditionsComfort  
Time TempWeatherWind HumidityBarometerVisibility
9:00 AM
Wed, Feb 10
37 °FPassing clouds.7 mph81%29.65 "HgN/A
8:30 AM37 °FPassing clouds.6 mph81%29.62 "HgN/A
8:00 AM37 °FPassing clouds.8 mph81%29.62 "HgN/A
7:30 AM37 °FPassing clouds.8 mph81%29.62 "HgN/A
7:00 AM37 °FPassing clouds.8 mph81%29.62 "HgN/A
6:30 AM37 °FPassing clouds.8 mph81%29.62 "HgN/A
6:00 AM37 °FPassing clouds.8 mph81%29.62 "HgN/A
5:30 AM37 °FPassing clouds.8 mph81%29.62 "HgN/A
5:00 AM37 °FPassing clouds.10 mph81%29.59 "HgN/A
4:30 AM37 °FClear.9 mph81%29.59 "Hg10 mi
4:00 AM37 °FPassing clouds.9 mph87%29.59 "HgN/A
3:30 AM39 °FOvercast.8 mph81%29.59 "HgN/A
3:00 AM39 °FMostly cloudy.10 mph81%29.59 "HgN/A
2:30 AM39 °FOvercast.8 mph81%29.59 "HgN/A
1:30 AM39 °FOvercast.10 mph81%29.59 "HgN/A
1:00 AM37 °FPassing clouds.10 mph81%29.56 "HgN/A
12:30 AM37 °FPassing clouds.9 mph81%29.56 "HgN/A
12:00 AM37 °FPassing clouds.6 mph81%29.56 "HgN/A
11:30 PM
Tue, Feb 9
37 °FPassing clouds.6 mph87%29.56 "HgN/A
10:30 PM39 °FPassing clouds.8 mph81%29.53 "HgN/A
10:00 PM39 °FPartly cloudy.9 mph81%29.53 "HgN/A
9:30 PM41 °FMostly cloudy.10 mph76%29.50 "HgN/A
9:00 PM41 °FPassing clouds.12 mph81%29.50 "HgN/A
8:30 PM41 °FMostly cloudy.14 mph81%29.47 "HgN/A
8:00 PM41 °FLight rain. Passing clouds.13 mph81%29.45 "HgN/A
7:30 PM43 °FMostly cloudy.14 mph71%29.42 "HgN/A
7:00 PM43 °FOvercast.15 mph76%29.42 "HgN/A
6:30 PM41 °FLight rain. Mostly cloudy.15 mph81%29.39 "HgN/A
6:00 PM41 °FLight rain. Partly sunny.17 mph81%29.39 "HgN/A
5:30 PM43 °FOvercast.14 mph76%29.36 "HgN/A
5:00 PM43 °FMostly cloudy.16 mph76%29.33 "HgN/A
4:30 PM45 °FPartly sunny.12 mph76%29.30 "HgN/A
4:00 PM43 °FLight rain. Partly sunny.12 mph87%29.30 "HgN/A
3:30 PM45 °FBroken clouds.12 mph81%29.30 "HgN/A
3:00 PM45 °FBroken clouds.9 mph81%29.30 "HgN/A
2:30 PM43 °FLight rain. Cloudy.12 mph81%29.30 "Hg4 mi
2:00 PM46 °FLight rain. Mostly cloudy.8 mph76%29.27 "HgN/A
1:30 PM46 °FMostly cloudy.9 mph71%29.27 "HgN/A
1:00 PM48 °FMostly cloudy.16 mph71%29.27 "HgN/A
12:30 PM48 °FMostly cloudy.21 mph76%29.27 "HgN/A
11:30 AM54 °FPartly sunny.23 mph72%29.18 "HgN/A
10:30 AM55 °FPartly sunny.16 mph77%29.18 "HgN/A
Weather by CustomWeather, © 2016

See weather overviewHow to use our weather pages